Date String (YYYY-MM-DD hh:mm:ss) UTC,Instrument flags,Ambient pressure (hPa),Sample flow (lpm),Bypass flow (lpm),Sample temperature (°C),Ambient temperature (°C),ASC tube jacket temperature (°C),LED temperature (°C),Box temperature (°C),Sample RH (%),Span deviation,Mass concentration (μg/m³),Mass concentration (μg/m³),Mass concentration (μg/m³)
DateTimeUTC,F1_M11,P_M11,Q1_M11,Q2_M11,T1_M11,T2_M11,T3_M11,T4_M11,T5_M11,U1_M11,ZSPAN_M11,X2_M11,X0_M11,X1_M11
2023-05-24 19:00:00,,0830.6,4.99,0.00,29.3,28.0,00.0,37.6,31.1,32.4,0002.8,0023.01,0034.49,0021.78
2023-05-24 19:01:00,,0830.6,5.01,0.00,29.4,28.0,00.0,37.6,31.1,32.3,0002.9,0023.07,0035.04,0021.83
2023-05-24 19:02:00,,0830.6,5.00,0.00,29.4,28.1,00.0,37.6,31.2,32.3,0002.9,0023.09,0035.40,0021.84
2023-05-24 19:03:00,,0830.6,5.00,0.00,29.4,28.2,00.0,37.7,31.2,31.9,0002.9,0023.17,0035.89,0021.91
2023-05-24 19:04:00,,0830.6,4.98,0.00,29.5,28.2,00.0,37.7,31.2,32.1,0002.8,0023.24,0036.76,0021.98
2023-05-24 19:05:00,,0830.6,4.99,0.00,29.5,28.2,00.0,37.7,31.3,32.0,0002.7,0023.38,0037.30,0022.13
2023-05-24 19:06:00,,0830.6,5.00,0.00,29.5,27.2,00.0,37.7,31.2,31.6,0002.7,0023.42,0037.40,0022.19
2023-05-24 19:07:00,,0830.6,5.00,0.00,29.5,26.1,00.0,37.6,31.0,32.0,0002.7,0023.45,0037.35,0022.25
2023-05-24 19:08:00,,0830.6,4.99,0.00,29.4,25.9,00.0,37.6,30.9,32.6,0002.7,0023.46,0037.44,0022.28
2023-05-24 19:09:00,,0830.5,5.01,0.00,29.3,26.1,00.0,37.6,30.8,32.6,0002.7,0023.51,0037.81,0022.34
2023-05-24 19:10:00,,0830.6,5.00,0.00,29.3,26.4,00.0,37.6,30.9,33.2,0002.8,0023.59,0038.68,0022.40
2023-05-24 19:11:00,,0830.5,4.98,0.00,29.3,26.7,00.0,37.6,30.9,32.5,0002.7,0023.51,0038.79,0022.37
2023-05-24 19:12:00,,0830.5,5.00,0.00,29.3,27.0,00.0,37.6,30.9,32.3,0002.7,0023.50,0038.91,0022.36
2023-05-24 19:13:00,,0830.6,5.02,0.00,29.3,27.2,00.0,37.6,31.0,32.5,0002.6,0023.47,0038.32,0022.34
2023-05-24 19:14:00,,0830.5,5.00,0.00,29.3,27.4,00.0,37.6,31.0,32.2,0002.6,0023.38,0038.05,0022.28
2023-05-24 19:15:00,,0830.6,4.99,0.00,29.4,27.6,00.0,37.6,31.1,32.6,0002.7,0023.39,0037.69,0022.28
2023-05-24 19:16:00,,0830.5,5.01,0.00,29.4,27.8,00.0,37.7,31.1,32.7,0002.7,0023.34,0037.21,0022.20
2023-05-24 19:17:00,,0830.6,5.01,0.00,29.4,27.9,00.0,37.7,31.1,32.5,0002.8,0023.38,0037.56,0022.19
2023-05-24 19:18:00,,0830.5,4.99,0.00,29.4,28.0,00.0,37.7,31.2,32.6,0002.8,0023.44,0037.93,0022.23
2023-05-24 19:19:00,,0830.6,5.00,0.00,29.5,28.1,00.0,37.7,31.2,32.1,0002.7,0023.53,0037.78,0022.28
2023-05-24 19:20:00,,0830.6,5.01,0.00,29.5,28.2,00.0,37.7,31.3,32.1,0002.7,0023.57,0037.97,0022.31
2023-05-24 19:21:00,,0830.6,5.01,0.00,29.5,27.8,00.0,37.7,31.2,32.1,0002.7,0023.60,0038.26,0022.38
2023-05-24 19:22:00,,0830.5,4.98,0.00,29.5,26.4,00.0,37.7,31.0,32.2,0002.7,0023.80,0038.57,0022.51
2023-05-24 19:23:00,,0830.6,5.01,0.00,29.5,25.8,00.0,37.6,30.9,32.3,0002.8,0023.93,0037.91,0022.63
2023-05-24 19:24:00,,0830.5,5.01,0.00,29.4,25.9,00.0,37.6,30.8,32.4,0002.8,0024.12,0038.13,0022.80
2023-05-24 19:25:00,,0830.6,5.00,0.00,29.3,26.2,00.0,37.6,30.8,32.8,0002.9,0024.25,0038.87,0022.90
2023-05-24 19:26:00,,0830.5,5.00,0.00,29.3,26.5,00.0,37.6,30.9,32.9,0002.8,0024.31,0038.71,0022.93
2023-05-24 19:27:00,,0830.7,5.00,0.00,29.3,26.8,00.0,37.6,30.9,32.3,0002.8,0024.26,0039.98,0022.88
2023-05-24 19:28:00,,0830.4,5.00,0.00,29.3,27.1,00.0,37.6,31.0,32.9,0002.7,0024.18,0040.17,0022.84
2023-05-24 19:29:00,,0830.4,5.00,0.00,29.3,27.3,00.0,37.6,31.0,32.3,0002.7,0024.11,0039.97,0022.77
2023-05-24 19:30:00,,0830.5,5.00,0.00,29.3,27.5,00.0,37.7,31.1,32.1,0002.7,0024.04,0040.20,0022.75
2023-05-24 19:31:00,,0830.4,5.00,0.00,29.4,27.7,00.0,37.7,31.1,32.2,0002.6,0023.97,0039.77,0022.70
2023-05-24 19:32:00,,0830.5,4.99,0.00,29.4,27.8,00.0,37.7,31.1,31.9,0002.6,0023.89,0039.47,0022.60
2023-05-24 19:33:00,,0830.4,4.99,0.00,29.4,27.9,00.0,37.7,31.2,31.6,0002.6,0023.71,0038.67,0022.48
2023-05-24 19:34:00,,0830.5,5.00,0.00,29.4,28.0,00.0,37.7,31.2,31.9,0002.6,0023.63,0038.46,0022.40
2023-05-24 19:35:00,,0830.6,5.01,0.00,29.5,28.1,00.0,37.7,31.2,31.9,0002.6,0023.53,0038.35,0022.29
2023-05-24 19:36:00,,0830.5,5.01,0.00,29.5,28.2,00.0,37.7,31.3,32.2,0002.6,0023.52,0037.68,0022.30
2023-05-24 19:37:00,,0830.4,4.98,0.00,29.5,27.0,00.0,37.7,31.1,32.4,0002.6,0023.55,0038.42,0022.30
2023-05-24 19:38:00,,0830.5,5.01,0.00,29.5,25.9,00.0,37.6,31.0,32.5,0002.7,0023.68,0037.86,0022.40
2023-05-24 19:39:00,,0830.6,5.00,0.00,29.4,25.8,00.0,37.6,30.8,32.6,0002.7,0023.81,0037.42,0022.51
2023-05-24 19:40:00,,0830.5,5.00,0.00,29.3,26.0,00.0,37.6,30.8,32.8,0002.7,0023.88,0037.70,0022.59
2023-05-24 19:41:00,,0830.4,5.00,0.00,29.3,26.3,00.0,37.6,30.8,32.5,0002.8,0023.96,0038.07,0022.64
2023-05-24 19:42:00,,0830.4,5.00,0.00,29.3,26.6,00.0,37.6,30.9,32.3,0002.8,0024.03,0038.44,0022.69
2023-05-24 19:43:00,,0830.4,5.00,0.00,29.3,26.9,00.0,37.6,30.9,32.4,0002.7,0024.11,0038.23,0022.75
2023-05-24 19:44:00,,0830.5,5.01,0.00,29.3,27.2,00.0,37.6,31.0,32.3,0002.7,0024.21,0038.91,0022.82
2023-05-24 19:45:00,,0830.4,5.01,0.00,29.3,27.4,00.0,37.6,31.0,32.5,0002.7,0024.24,0039.12,0022.83
2023-05-24 19:46:00,,0830.4,5.00,0.00,29.3,27.6,00.0,37.6,31.0,32.4,0002.7,0024.25,0039.23,0022.84
2023-05-24 19:47:00,,0830.4,4.99,0.00,29.4,27.7,00.0,37.7,31.1,32.8,0002.7,0024.18,0039.25,0022.73
2023-05-24 19:48:00,,0830.3,5.00,0.00,29.4,27.9,00.0,37.7,31.1,32.9,0002.7,0024.08,0038.79,0022.68
2023-05-24 19:49:00,,0830.3,5.00,0.00,29.4,28.0,00.0,37.7,31.2,33.2,0002.6,0024.01,0038.03,0022.66
2023-05-24 19:50:00,,0830.3,5.00,0.00,29.5,28.1,00.0,37.7,31.2,32.9,0002.6,0023.99,0038.86,0022.67
2023-05-24 19:51:00,,0830.3,4.99,0.00,29.5,27.6,00.0,37.7,31.2,32.8,0002.5,0024.01,0038.54,0022.69
2023-05-24 19:52:00,,0830.3,5.00,0.00,29.4,26.1,00.0,37.6,31.0,33.0,0002.6,0023.99,0037.92,0022.70
2023-05-24 19:53:00,,0830.2,5.00,0.00,29.4,25.6,00.0,37.6,30.8,32.9,0002.6,0024.03,0037.51,0022.74
2023-05-24 19:54:00,,0830.3,5.01,0.00,29.3,25.8,00.0,37.6,30.7,32.7,0002.7,0024.08,0037.43,0022.81
2023-05-24 19:55:00,,0830.3,5.01,0.00,29.3,26.1,00.0,37.6,30.7,33.3,0002.7,0024.19,0036.95,0022.91
2023-05-24 19:56:00,,0830.3,4.99,0.00,29.2,26.4,00.0,37.6,30.8,33.1,0002.8,0024.21,0036.58,0022.96
2023-05-24 19:57:00,,0830.3,5.00,0.00,29.2,26.7,00.0,37.6,30.9,33.3,0002.8,0024.25,0036.98,0022.99
2023-05-24 19:58:00,,0830.3,5.00,0.00,29.3,27.0,00.0,37.6,30.9,33.0,0002.7,0024.29,0037.55,0023.08
2023-05-24 19:59:00,,0830.3,5.01,0.00,29.3,27.2,00.0,37.6,30.9,32.9,0002.7,0024.36,0037.93,0023.18
